Weather History for Cairo, IL

Change the Weather History Date:

Saturday, November 24, 2012

  Actual Average Record
Temperature  
Mean Temperature 34 °F -  
Max Temperature 42 °F 50 °F 73 °F (1990)
Min Temperature 26 °F 36 °F 6 °F (1950)
Degree Days  
Heating Degree Days 31    
Moisture  
Dew Point 21 °F    
Average Humidity 58    
Maximum Humidity 74    
Minimum Humidity 39    
Precipitation  
Precipitation 0.00 in - - ()
Sea Level Pressure  
Sea Level Pressure 30.27 in    
Wind  
Wind Speed 5 mph (West)    
Max Wind Speed 9 mph    
Max Gust Speed -    
Visibility 10 miles    
Events      
Averages and records for this station are not official NWS values.
T = Trace of Precipitation, MM = Missing Value Source: NWS Daily Summary

Daily Weather History Graph

Daily Weather History Graph

Search for Another Location

Airport:

Trip Planner

Search our weather history database for the weather conditions in past years. The results will help you decide how hot, cold, wet, or windy it might be!

Date:

Astronomy

Nov. 24, 2012 Rise Set
Actual Time 6:45 AM CST 4:41 PM CST
Civil Twilight 6:17 AM CST 5:10 PM CST
Nautical Twilight 5:45 AM CST 5:42 PM CST
Astronomical Twilight 5:14 AM CST 6:13 PM CST
Moon 2:23 PM CST (11/24) 3:06 AM CST (11/24)
Length of Visible Light 10h 53m
Length of Day
9h 56m
Waxing Gibbous, 87% of the Moon is Illuminated
Nov 24
Waxing Gibbous
Nov 28
Full
Dec 6
Last Quarter
Dec 13
New
Dec 19
First Quarter

Hourly Weather History & Observations

Time (CST) Temp. Windchill Dew Point Humidity Pressure Visibility Wind Dir Wind Speed Gust Speed Precip Events Conditions
12:15 AM 33.8 °F 26.4 °F 21.2 °F 60% 30.33 in 10.0 mi NNW 9.2 mph - N/A   Clear
12:35 AM 33.8 °F 26.4 °F 21.2 °F 60% 30.34 in 10.0 mi NNW 9.2 mph - N/A   Clear
12:55 AM 33.8 °F 27.0 °F 21.2 °F 60% 30.34 in 10.0 mi NNW 8.1 mph - N/A   Clear
1:35 AM 32.0 °F 27.5 °F 21.2 °F 64% 30.34 in 10.0 mi NNW 4.6 mph - N/A   Clear
2:15 AM 30.2 °F 23.4 °F 21.2 °F 69% 30.34 in 10.0 mi NNW 6.9 mph - N/A   Clear
2:55 AM 30.2 °F 26.7 °F 21.2 °F 69% 30.33 in 10.0 mi NW 3.5 mph - N/A   Clear
3:35 AM 28.4 °F 23.3 °F 21.2 °F 74% 30.33 in 10.0 mi NW 4.6 mph - N/A   Clear
3:55 AM 30.2 °F 25.4 °F 21.2 °F 69% 30.33 in 10.0 mi WNW 4.6 mph - N/A   Clear
4:15 AM 30.2 °F 26.7 °F 19.4 °F 64% 30.33 in 10.0 mi NW 3.5 mph - N/A   Clear
4:35 AM 28.4 °F 24.6 °F 19.4 °F 69% 30.33 in 10.0 mi NW 3.5 mph - N/A   Clear
4:55 AM 26.6 °F - 19.4 °F 74% 30.33 in 10.0 mi Calm Calm - N/A   Clear
5:15 AM 26.6 °F 22.6 °F 17.6 °F 69% 30.34 in 10.0 mi WNW 3.5 mph - N/A   Clear
5:35 AM 28.4 °F 23.3 °F 19.4 °F 69% 30.34 in 10.0 mi WNW 4.6 mph - N/A   Clear
5:55 AM 28.4 °F 22.2 °F 19.4 °F 69% 30.35 in 10.0 mi WNW 5.8 mph - N/A   Clear
6:15 AM 28.4 °F 23.3 °F 19.4 °F 69% 30.35 in 10.0 mi NW 4.6 mph - N/A   Clear
6:35 AM 28.4 °F 23.3 °F 19.4 °F 69% 30.35 in 10.0 mi WNW 4.6 mph - N/A   Clear
6:55 AM 28.4 °F 23.3 °F 19.4 °F 69% 30.36 in 10.0 mi WNW 4.6 mph - N/A   Clear
7:15 AM 30.2 °F 25.4 °F 19.4 °F 64% 30.35 in 10.0 mi WNW 4.6 mph - N/A   Clear
7:35 AM 30.2 °F 24.3 °F 21.2 °F 69% 30.36 in 10.0 mi WNW 5.8 mph - N/A   Clear
7:55 AM 32.0 °F 25.6 °F 21.2 °F 64% 30.36 in 10.0 mi WNW 6.9 mph - N/A   Clear
8:15 AM 32.0 °F 26.4 °F 21.2 °F 64% 30.36 in 10.0 mi NW 5.8 mph - N/A   Clear
8:35 AM 32.0 °F 24.8 °F 21.2 °F 64% 30.37 in 10.0 mi NW 8.1 mph - N/A   Clear
8:55 AM 33.8 °F 27.7 °F 21.2 °F 60% 30.37 in 10.0 mi NNW 6.9 mph - N/A   Clear
9:15 AM 33.8 °F 27.7 °F 21.2 °F 60% 30.37 in 10.0 mi WNW 6.9 mph - N/A   Clear
9:35 AM 33.8 °F 27.7 °F 19.4 °F 56% 30.37 in 10.0 mi WNW 6.9 mph - N/A   Clear
9:55 AM 35.6 °F 32.8 °F 19.4 °F 52% 30.37 in 10.0 mi NNW 3.5 mph - N/A   Clear
10:15 AM 35.6 °F 30.7 °F 19.4 °F 52% 30.37 in 10.0 mi WSW 5.8 mph - N/A   Clear
10:35 AM 37.4 °F 33.8 °F 19.4 °F 48% 30.36 in 10.0 mi West 4.6 mph - N/A   Clear
10:55 AM 37.4 °F - 19.4 °F 48% 30.35 in 10.0 mi Calm Calm - N/A   Clear
11:15 AM 37.4 °F 32.8 °F 19.4 °F 48% 30.34 in 10.0 mi WSW 5.8 mph - N/A   Clear
11:35 AM 37.4 °F 34.9 °F 19.4 °F 48% 30.33 in 10.0 mi NNW 3.5 mph - N/A   Clear
11:55 AM 39.2 °F - 19.4 °F 45% 30.32 in 10.0 mi Calm Calm - N/A   Clear
12:15 PM 39.2 °F 35.0 °F 19.4 °F 45% 30.31 in 10.0 mi SW 5.8 mph - N/A   Clear
12:35 PM 39.2 °F 34.2 °F 19.4 °F 45% 30.30 in 10.0 mi WSW 6.9 mph - N/A   Clear
12:55 PM 41.0 °F 38.0 °F 19.4 °F 42% 30.29 in 10.0 mi West 4.6 mph - N/A   Clear
1:15 PM 41.0 °F 38.0 °F 19.4 °F 42% 30.28 in 10.0 mi West 4.6 mph - N/A   Clear
1:35 PM 41.0 °F 37.1 °F 19.4 °F 42% 30.28 in 10.0 mi West 5.8 mph - N/A   Clear
1:55 PM 41.0 °F - 19.4 °F 42% 30.26 in 10.0 mi Calm Calm - N/A   Clear
2:15 PM 42.8 °F 39.3 °F 19.4 °F 39% 30.26 in 10.0 mi WSW 5.8 mph - N/A   Clear
2:35 PM 42.8 °F - 19.4 °F 39% 30.25 in 10.0 mi Calm Calm - N/A   Clear
2:55 PM 42.8 °F 40.1 °F 19.4 °F 39% 30.25 in 10.0 mi West 4.6 mph - N/A   Clear
3:15 PM 41.0 °F 39.0 °F 19.4 °F 42% 30.25 in 10.0 mi West 3.5 mph - N/A   Clear
3:35 PM 39.2 °F - 19.4 °F 45% 30.24 in 10.0 mi Calm Calm - N/A   Clear
3:55 PM 41.0 °F 39.0 °F 21.2 °F 45% 30.23 in 10.0 mi SSW 3.5 mph - N/A   Clear
4:15 PM 39.2 °F - 19.4 °F 45% 30.23 in 10.0 mi Calm Calm - N/A   Clear
4:35 PM 39.2 °F - 19.4 °F 45% 30.22 in 10.0 mi Calm Calm - N/A   Clear
4:55 PM 37.4 °F - 19.4 °F 48% 30.21 in 10.0 mi Calm Calm - N/A   Clear
5:15 PM 37.4 °F - 19.4 °F 48% 30.21 in 10.0 mi Calm Calm - N/A   Clear
5:35 PM 35.6 °F - 21.2 °F 56% 30.20 in 10.0 mi Calm Calm - N/A   Clear
5:55 PM 33.8 °F - 21.2 °F 60% 30.21 in 10.0 mi Calm Calm - N/A   Clear
6:15 PM 33.8 °F - 21.2 °F 60% 30.20 in 10.0 mi Calm Calm - N/A   Clear
6:35 PM 32.0 °F - 21.2 °F 64% 30.20 in 10.0 mi Calm Calm - N/A   Clear
6:55 PM 33.8 °F - 23.0 °F 65% 30.20 in 10.0 mi Calm Calm - N/A   Clear
7:15 PM 35.6 °F 32.8 °F 23.0 °F 60% 30.19 in 10.0 mi South 3.5 mph - N/A   Clear
7:35 PM 33.8 °F 30.8 °F 23.0 °F 65% 30.20 in 10.0 mi South 3.5 mph - N/A   Clear
7:55 PM 35.6 °F 31.7 °F 23.0 °F 60% 30.19 in 10.0 mi South 4.6 mph - N/A   Clear
8:15 PM 35.6 °F 31.7 °F 23.0 °F 60% 30.18 in 10.0 mi South 4.6 mph - N/A   Clear
8:35 PM 33.8 °F 30.8 °F 23.0 °F 65% 30.18 in 10.0 mi SSW 3.5 mph - N/A   Clear
8:55 PM 33.8 °F 28.6 °F 23.0 °F 65% 30.17 in 10.0 mi South 5.8 mph - N/A   Clear
9:15 PM 33.8 °F 29.6 °F 23.0 °F 65% 30.17 in 10.0 mi South 4.6 mph - N/A   Clear
9:35 PM 35.6 °F 31.7 °F 23.0 °F 60% 30.15 in 10.0 mi SSE 4.6 mph - N/A   Clear
9:55 PM 33.8 °F 29.6 °F 23.0 °F 65% 30.15 in 10.0 mi SSE 4.6 mph - N/A   Clear
10:15 PM 33.8 °F 28.6 °F 23.0 °F 65% 30.15 in 10.0 mi South 5.8 mph - N/A   Clear
10:35 PM 33.8 °F 28.6 °F 24.8 °F 70% 30.14 in 10.0 mi South 5.8 mph - N/A   Clear
10:55 PM 33.8 °F 29.6 °F 23.0 °F 65% 30.14 in 10.0 mi South 4.6 mph - N/A   Clear
11:15 PM 33.8 °F 28.6 °F 24.8 °F 70% 30.14 in 10.0 mi South 5.8 mph - N/A   Clear
11:35 PM 33.8 °F 27.7 °F 24.8 °F 70% 30.13 in 10.0 mi South 6.9 mph - N/A   Clear
11:55 PM 33.8 °F 27.7 °F 24.8 °F 70% 30.13 in 10.0 mi South 6.9 mph - N/A   Clear